TimeMST,TemperatureF,Dew PointF,Humidity,Sea Level PressureIn,VisibilityMPH,Wind Direction,Wind SpeedMPH,Gust SpeedMPH,PrecipitationIn,Events,Conditions,WindDirDegrees,DateUTC
12:53 AM,37.9,34.0,86,29.91,10.0,West,6.9,-,0.00,Rain,Light Rain,260,2014-03-04 07:53:00
1:53 AM,37.9,34.0,86,29.89,10.0,WSW,6.9,-,0.01,,Overcast,240,2014-03-04 08:53:00
2:53 AM,39.9,34.0,79,29.88,10.0,SW,10.4,-,N/A,,Overcast,230,2014-03-04 09:53:00
3:53 AM,37.9,34.0,86,29.90,10.0,WSW,10.4,-,N/A,,Overcast,240,2014-03-04 10:53:00
4:02 AM,37.9,34.0,86,29.90,10.0,WSW,11.5,-,N/A,,Overcast,240,2014-03-04 11:02:00
4:40 AM,37.0,35.1,93,29.91,10.0,WNW,3.5,-,0.02,Rain,Light Rain,290,2014-03-04 11:40:00
4:53 AM,37.0,35.1,93,29.91,10.0,Calm,Calm,-,0.02,Rain,Light Rain,0,2014-03-04 11:53:00
5:53 AM,37.0,35.1,93,29.92,10.0,Calm,Calm,-,0.00,,Overcast,0,2014-03-04 12:53:00
6:53 AM,36.0,35.1,97,29.94,10.0,SSW,3.5,-,N/A,,Mostly Cloudy,210,2014-03-04 13:53:00
7:15 AM,35.1,34.0,96,29.92,10.0,SSW,4.6,-,N/A,,Scattered Clouds,200,2014-03-04 14:15:00
7:53 AM,35.1,34.0,96,29.96,10.0,SSW,3.5,-,N/A,,Clear,210,2014-03-04 14:53:00
8:32 AM,36.0,35.1,97,29.95,10.0,SW,4.6,-,N/A,,Scattered Clouds,220,2014-03-04 15:32:00
8:42 AM,37.0,35.1,93,29.95,10.0,SW,4.6,-,N/A,,Mostly Cloudy,230,2014-03-04 15:42:00
8:53 AM,37.0,35.1,93,29.99,10.0,WSW,6.9,-,N/A,,Overcast,240,2014-03-04 15:53:00
9:53 AM,37.0,35.1,93,30.01,10.0,Calm,Calm,-,N/A,,Overcast,0,2014-03-04 16:53:00
10:33 AM,39.0,36.0,89,29.98,10.0,SSW,5.8,-,N/A,,Mostly Cloudy,210,2014-03-04 17:33:00
10:38 AM,39.0,36.0,89,29.98,10.0,SSW,5.8,-,N/A,,Scattered Clouds,200,2014-03-04 17:38:00
10:53 AM,39.0,35.1,86,29.99,10.0,SSW,5.8,-,N/A,,Partly Cloudy,210,2014-03-04 17:53:00
11:40 AM,41.0,35.1,79,29.97,10.0,Variable,4.6,-,N/A,,Mostly Cloudy,0,2014-03-04 18:40:00
11:48 AM,42.8,35.6,76,29.97,10.0,South,4.6,-,N/A,,Mostly Cloudy,190,2014-03-04 18:48:00
11:53 AM,42.1,35.1,76,29.98,10.0,SSW,5.8,-,N/A,,Scattered Clouds,200,2014-03-04 18:53:00
12:08 PM,42.1,34.0,73,29.97,10.0,SSW,5.8,-,N/A,,Mostly Cloudy,200,2014-03-04 19:08:00
12:15 PM,43.0,34.0,71,29.96,10.0,Variable,4.6,-,N/A,,Partly Cloudy,0,2014-03-04 19:15:00
12:53 PM,44.1,30.9,60,29.98,10.0,WSW,4.6,-,N/A,,Mostly Cloudy,250,2014-03-04 19:53:00
1:53 PM,46.0,30.9,56,29.97,10.0,SW,5.8,-,N/A,,Mostly Cloudy,220,2014-03-04 20:53:00
2:53 PM,46.0,27.0,47,29.96,10.0,SW,5.8,-,N/A,,Partly Cloudy,230,2014-03-04 21:53:00
3:53 PM,45.0,30.9,58,29.96,10.0,SSW,9.2,-,N/A,,Partly Cloudy,200,2014-03-04 22:53:00
4:04 PM,45.0,30.9,58,29.94,10.0,South,6.9,-,N/A,Thunderstorm,Scattered Clouds,170,2014-03-04 23:04:00
4:17 PM,44.1,32.0,63,29.96,10.0,SSW,5.8,-,N/A,Thunderstorm,Thunderstorm,200,2014-03-04 23:17:00
4:36 PM,41.0,33.1,73,29.96,10.0,ESE,3.5,-,0.00,Rain,Light Rain,110,2014-03-04 23:36:00
4:50 PM,42.8,32.0,66,29.96,10.0,East,5.8,-,0.00,Rain-Thunderstorm,Light Rain,100,2014-03-04 23:50:00
4:53 PM,42.1,33.1,70,29.98,10.0,East,5.8,-,0.00,Rain-Thunderstorm,Light Rain,100,2014-03-04 23:53:00
5:05 PM,42.1,34.0,73,29.96,10.0,NE,9.2,-,0.01,,Overcast,40,2014-03-05 00:05:00
5:53 PM,36.0,32.0,86,30.02,10.0,East,12.7,-,0.01,,Mostly Cloudy,80,2014-03-05 00:53:00
6:53 PM,35.1,30.9,85,30.04,10.0,ENE,8.1,-,0.00,,Clear,70,2014-03-05 01:53:00
7:53 PM,33.1,30.0,89,30.07,10.0,NE,4.6,-,N/A,,Clear,50,2014-03-05 02:53:00
8:53 PM,30.9,28.9,92,30.09,10.0,NE,3.5,-,N/A,,Clear,40,2014-03-05 03:53:00
9:53 PM,30.0,28.0,92,30.12,10.0,Calm,Calm,-,N/A,,Clear,0,2014-03-05 04:53:00
10:53 PM,28.9,27.0,92,30.12,10.0,Calm,Calm,-,N/A,,Clear,0,2014-03-05 05:53:00
11:53 PM,33.1,28.0,82,30.10,10.0,South,9.2,-,N/A,,Clear,190,2014-03-05 06:53:00